IBS461R LEZL-LEPA

Flight info

Callsign IBS461R
Flight time N/A
Altitude 36000
Route BUDIT M445 LASPO/N0366F260 M871 GODOX
Aircraft A320/M-SDE3FGHIRWY/LB1

Departure

Time 2026-05-06 15:01
Airport Seville Airport (LEZL)

Arrival

Time N/A
Airport Palma de Mallorca Airport (LEPA)
Time Latitude Longitude Altitude Speed Heading
2026-05-06 14:44 37.42280 -5.89885 93 ft 0 kts 315°
2026-05-06 14:52 37.42276 -5.89881 96 ft 4 kts 314°
2026-05-06 14:52 37.42258 -5.89856 93 ft 4 kts 309°
2026-05-06 14:53 37.42242 -5.89828 96 ft 4 kts 295°
2026-05-06 14:53 37.42236 -5.89799 95 ft 4 kts 249°
2026-05-06 14:53 37.42240 -5.89789 94 ft 0 kts 225°
2026-05-06 14:56 37.42229 -5.89802 94 ft 5 kts 225°
2026-05-06 14:56 37.42196 -5.89843 94 ft 8 kts 225°
2026-05-06 14:56 37.42165 -5.89884 94 ft 6 kts 225°
2026-05-06 14:57 37.42138 -5.89918 94 ft 5 kts 225°
2026-05-06 14:57 37.42113 -5.89949 94 ft 6 kts 224°
2026-05-06 14:57 37.42075 -5.89994 96 ft 10 kts 223°
2026-05-06 14:57 37.42045 -5.90078 94 ft 11 kts 239°
2026-05-06 14:58 37.41993 -5.90103 96 ft 7 kts 208°
2026-05-06 14:58 37.41980 -5.90173 95 ft 11 kts 269°
2026-05-06 14:58 37.41980 -5.90291 95 ft 16 kts 270°
2026-05-06 14:58 37.41979 -5.90454 94 ft 21 kts 269°
2026-05-06 14:59 37.41979 -5.90644 93 ft 22 kts 270°
2026-05-06 14:59 37.41976 -5.90847 91 ft 18 kts 271°
2026-05-06 14:59 37.41970 -5.90941 94 ft 11 kts 244°
2026-05-06 14:59 37.41922 -5.91045 90 ft 17 kts 240°
2026-05-06 15:00 37.41863 -5.91168 90 ft 15 kts 232°
2026-05-06 15:00 37.41795 -5.91174 94 ft 7 kts 141°
2026-05-06 15:00 37.41789 -5.91149 91 ft 0 kts 91°
2026-05-06 15:00 37.41788 -5.91143 93 ft 8 kts 91°
2026-05-06 15:01 37.41790 -5.90708 94 ft 89 kts 90°
2026-05-06 15:01 37.41794 -5.89656 98 ft 149 kts 90°
2026-05-06 15:01 37.41803 -5.88240 533 ft 164 kts 89°
2026-05-06 15:01 37.41810 -5.86808 1274 ft 166 kts 90°
2026-05-06 15:02 37.41812 -5.85328 1853 ft 177 kts 90°
2026-05-06 15:02 37.41811 -5.83692 2306 ft 195 kts 90°
2026-05-06 15:02 37.41828 -5.81902 2713 ft 217 kts 84°
2026-05-06 15:02 37.42127 -5.79915 3170 ft 243 kts 78°
2026-05-06 15:03 37.42482 -5.77766 3790 ft 262 kts 78°
2026-05-06 15:03 37.42972 -5.75534 4709 ft 268 kts 66°
2026-05-06 15:03 37.43752 -5.73370 5690 ft 272 kts 65°
2026-05-06 15:03 37.44534 -5.71179 6667 ft 276 kts 66°
2026-05-06 15:04 37.45310 -5.68979 7598 ft 280 kts 66°
2026-05-06 15:04 37.46104 -5.66716 8524 ft 284 kts 66°
2026-05-06 15:04 37.46911 -5.64419 9435 ft 288 kts 66°
2026-05-06 15:04 37.47727 -5.62093 10311 ft 292 kts 66°
2026-05-06 15:05 37.48079 -5.61085 10658 ft 293 kts 66°
2026-05-06 15:05 37.48907 -5.58714 11439 ft 302 kts 66°
2026-05-06 15:05 37.49775 -5.56229 11758 ft 325 kts 66°
2026-05-06 15:05 37.50701 -5.53569 12368 ft 335 kts 66°
2026-05-06 15:06 37.51646 -5.50849 13126 ft 341 kts 66°
2026-05-06 15:06 37.52605 -5.48089 13886 ft 345 kts 66°
2026-05-06 15:06 37.53574 -5.45303 14633 ft 349 kts 66°
2026-05-06 15:06 37.54544 -5.42515 15336 ft 352 kts 66°
2026-05-06 15:07 37.55531 -5.39674 16027 ft 356 kts 66°
2026-05-06 15:07 37.56534 -5.36789 16709 ft 360 kts 66°
2026-05-06 15:07 37.57547 -5.33870 17384 ft 364 kts 66°
2026-05-06 15:07 37.58556 -5.30956 18030 ft 367 kts 66°
2026-05-06 15:08 37.59583 -5.27989 18672 ft 371 kts 66°
2026-05-06 15:08 37.60428 -5.24899 19280 ft 374 kts 77°
2026-05-06 15:08 37.60808 -5.21670 19879 ft 378 kts 85°
2026-05-06 15:08 37.61038 -5.18341 20468 ft 381 kts 85°
2026-05-06 15:09 37.61274 -5.14989 21046 ft 384 kts 85°
2026-05-06 15:09 37.61511 -5.11614 21613 ft 388 kts 85°
2026-05-06 15:09 37.61749 -5.08249 22138 ft 391 kts 85°
2026-05-06 15:09 37.61990 -5.04805 22665 ft 394 kts 85°
2026-05-06 15:10 37.62228 -5.01336 23158 ft 397 kts 85°
2026-05-06 15:10 37.62465 -4.97832 23658 ft 401 kts 85°
2026-05-06 15:10 37.62704 -4.94355 24135 ft 404 kts 85°
2026-05-06 15:10 37.62951 -4.90799 24607 ft 407 kts 85°
2026-05-06 15:11 37.63199 -4.87225 25059 ft 410 kts 85°
2026-05-06 15:11 37.63447 -4.83632 25504 ft 413 kts 85°
2026-05-06 15:11 37.63692 -4.80045 25932 ft 415 kts 85°
2026-05-06 15:11 37.63935 -4.76401 26367 ft 418 kts 85°
2026-05-06 15:12 37.64178 -4.72728 26784 ft 421 kts 85°
2026-05-06 15:12 37.64421 -4.69075 27174 ft 424 kts 85°
2026-05-06 15:12 37.64666 -4.65354 27574 ft 426 kts 85°
2026-05-06 15:12 37.64913 -4.61614 27973 ft 428 kts 85°
2026-05-06 15:13 37.65162 -4.57858 28356 ft 431 kts 85°
2026-05-06 15:13 37.65410 -4.54078 28725 ft 434 kts 85°
2026-05-06 15:13 37.65658 -4.50265 29075 ft 436 kts 85°
2026-05-06 15:13 37.65906 -4.46435 29427 ft 439 kts 85°
2026-05-06 15:14 37.66151 -4.42622 29772 ft 441 kts 85°
2026-05-06 15:14 37.66399 -4.38733 30122 ft 443 kts 85°
2026-05-06 15:14 37.66644 -4.34836 30457 ft 446 kts 85°
2026-05-06 15:14 37.66886 -4.30927 30771 ft 448 kts 85°
2026-05-06 15:15 37.67131 -4.26999 31073 ft 450 kts 85°
2026-05-06 15:15 37.67380 -4.23036 31364 ft 452 kts 85°
2026-05-06 15:15 37.67628 -4.19109 31651 ft 454 kts 85°
2026-05-06 15:15 37.67877 -4.15131 32059 ft 453 kts 85°
2026-05-06 15:16 37.68123 -4.11157 32449 ft 453 kts 85°
2026-05-06 15:16 37.68365 -4.07191 32840 ft 452 kts 85°
2026-05-06 15:16 37.68602 -4.03280 33227 ft 451 kts 85°
2026-05-06 15:16 37.68839 -3.99319 33605 ft 451 kts 85°
2026-05-06 15:17 37.69075 -3.95370 33973 ft 451 kts 85°
2026-05-06 15:17 37.69311 -3.91414 34324 ft 451 kts 85°
2026-05-06 15:17 37.69546 -3.87462 34646 ft 451 kts 85°
2026-05-06 15:17 37.69776 -3.83569 35001 ft 450 kts 85°
2026-05-06 15:18 37.70006 -3.79638 35354 ft 449 kts 85°
2026-05-06 15:18 37.70238 -3.75703 35670 ft 448 kts 85°
2026-05-06 15:18 37.70470 -3.71767 35945 ft 448 kts 85°
2026-05-06 15:19 37.70919 -3.64034 36009 ft 439 kts 86°
2026-05-06 15:19 37.71363 -3.56323 36009 ft 439 kts 86°
2026-05-06 15:20 37.71796 -3.48618 36008 ft 441 kts 86°
2026-05-06 15:20 37.72227 -3.40896 36009 ft 442 kts 86°
2026-05-06 15:21 37.72652 -3.33152 36013 ft 440 kts 86°
2026-05-06 15:21 37.73070 -3.25494 36020 ft 439 kts 86°
2026-05-06 15:22 37.73481 -3.17805 36022 ft 438 kts 86°
2026-05-06 15:22 37.73890 -3.10104 36024 ft 438 kts 86°
2026-05-06 15:23 37.74292 -3.02469 36026 ft 437 kts 86°
2026-05-06 15:23 37.74686 -2.94826 36011 ft 438 kts 86°
2026-05-06 15:24 37.75078 -2.87112 36006 ft 438 kts 85°
2026-05-06 15:24 37.76543 -2.79726 36009 ft 437 kts 65°
2026-05-06 15:24 37.78032 -2.76372 36008 ft 437 kts 54°
2026-05-06 15:25 37.79963 -2.73410 36003 ft 436 kts 46°
2026-05-06 15:25 37.84182 -2.67849 35997 ft 437 kts 46°
2026-05-06 15:26 37.88360 -2.62297 35994 ft 438 kts 46°
2026-05-06 15:26 37.92546 -2.56715 35996 ft 438 kts 46°
2026-05-06 15:27 37.96761 -2.51097 35991 ft 439 kts 46°
2026-05-06 15:27 38.00973 -2.45467 35995 ft 440 kts 46°
2026-05-06 15:28 38.05166 -2.39860 35996 ft 440 kts 46°
2026-05-06 15:28 38.09395 -2.34202 35995 ft 441 kts 46°
2026-05-06 15:29 38.13599 -2.28561 36002 ft 442 kts 46°
2026-05-06 15:29 38.17831 -2.22878 36015 ft 441 kts 46°
2026-05-06 15:30 38.21905 -2.17111 36017 ft 440 kts 52°
2026-05-06 15:30 38.25059 -2.12013 36014 ft 440 kts 51°
2026-05-06 15:31 38.28850 -2.05886 36013 ft 439 kts 51°
2026-05-06 15:31 38.32637 -1.99759 36020 ft 439 kts 52°
2026-05-06 15:32 38.38277 -1.90604 36029 ft 438 kts 52°
2026-05-06 15:32 38.42031 -1.84500 36029 ft 437 kts 52°
2026-05-06 15:33 38.45758 -1.78436 36028 ft 436 kts 52°
2026-05-06 15:33 38.49507 -1.72325 36028 ft 436 kts 52°
2026-05-06 15:34 38.53225 -1.66258 36024 ft 436 kts 52°
2026-05-06 15:34 38.56957 -1.60148 36021 ft 435 kts 52°
2026-05-06 15:35 38.60686 -1.54022 36018 ft 435 kts 52°
2026-05-06 15:35 38.64389 -1.47936 36013 ft 435 kts 52°
2026-05-06 15:36 38.68109 -1.41803 36008 ft 435 kts 52°
2026-05-06 15:36 38.71822 -1.35664 36000 ft 436 kts 52°
2026-05-06 15:37 38.75529 -1.29534 36003 ft 436 kts 52°
2026-05-06 15:37 38.79256 -1.23374 36002 ft 436 kts 52°
2026-05-06 15:38 38.82953 -1.17246 36002 ft 436 kts 52°
2026-05-06 15:38 38.86667 -1.11078 36003 ft 436 kts 52°
2026-05-06 15:39 38.90372 -1.04903 36006 ft 436 kts 52°
2026-05-06 15:39 38.94053 -0.98761 36001 ft 436 kts 52°
2026-05-06 15:40 38.97757 -0.92568 36000 ft 436 kts 52°
2026-05-06 15:40 39.01427 -0.86414 36003 ft 436 kts 52°
2026-05-06 15:41 39.05119 -0.80210 36009 ft 435 kts 52°
2026-05-06 15:41 39.09311 -0.74634 36012 ft 434 kts 39°
2026-05-06 15:42 39.13989 -0.69683 36016 ft 434 kts 39°
2026-05-06 15:42 39.18610 -0.64758 36016 ft 433 kts 39°
2026-05-06 15:43 39.23253 -0.59773 36014 ft 433 kts 42°
2026-05-06 15:43 39.26921 -0.53719 36014 ft 432 kts 63°
2026-05-06 15:44 39.28673 -0.46337 36009 ft 431 kts 84°
2026-05-06 15:44 39.29094 -0.38643 36005 ft 431 kts 86°
2026-05-06 15:45 39.29501 -0.30964 36004 ft 431 kts 86°
2026-05-06 15:45 39.29914 -0.23215 36006 ft 431 kts 86°
2026-05-06 15:46 39.30308 -0.15519 35870 ft 432 kts 86°
2026-05-06 15:46 39.30502 -0.11729 35627 ft 432 kts 86°
2026-05-06 15:46 39.30697 -0.07861 35375 ft 432 kts 86°
2026-05-06 15:47 39.30893 -0.03980 35051 ft 429 kts 86°
2026-05-06 15:47 39.31087 -0.00130 34801 ft 428 kts 86°
2026-05-06 15:47 39.31277 0.03665 34553 ft 427 kts 86°
2026-05-06 15:47 39.31469 0.07485 34296 ft 425 kts 86°
2026-05-06 15:48 39.31657 0.11304 34053 ft 423 kts 86°
2026-05-06 15:48 39.31837 0.15052 33803 ft 422 kts 86°
2026-05-06 15:48 39.32019 0.18840 33552 ft 420 kts 86°
2026-05-06 15:48 39.32201 0.22609 33300 ft 418 kts 86°
2026-05-06 15:49 39.32380 0.26346 32980 ft 414 kts 86°
2026-05-06 15:49 39.32551 0.30010 32494 ft 412 kts 86°
2026-05-06 15:49 39.32721 0.33703 31981 ft 409 kts 86°
2026-05-06 15:49 39.32891 0.37378 31494 ft 406 kts 86°
2026-05-06 15:50 39.33056 0.40960 31082 ft 401 kts 86°
2026-05-06 15:50 39.33222 0.44539 30646 ft 397 kts 86°
2026-05-06 15:50 39.33386 0.48080 30233 ft 392 kts 86°
2026-05-06 15:50 39.33547 0.51587 29826 ft 388 kts 86°
2026-05-06 15:51 39.33704 0.55048 29429 ft 383 kts 86°
2026-05-06 15:51 39.33857 0.58435 29050 ft 379 kts 86°
2026-05-06 15:51 39.34008 0.61816 28667 ft 374 kts 86°
2026-05-06 15:51 39.34155 0.65168 28291 ft 369 kts 86°
2026-05-06 15:52 39.34297 0.68427 27925 ft 365 kts 86°
2026-05-06 15:52 39.34438 0.71694 27557 ft 361 kts 86°
2026-05-06 15:52 39.34579 0.74925 27176 ft 357 kts 86°
2026-05-06 15:52 39.34716 0.78118 26803 ft 353 kts 86°
2026-05-06 15:53 39.34852 0.81244 26413 ft 350 kts 86°
2026-05-06 15:53 39.34989 0.84382 26038 ft 347 kts 86°
2026-05-06 15:53 39.35125 0.87485 25656 ft 344 kts 86°
2026-05-06 15:53 39.35255 0.90565 25260 ft 341 kts 87°
2026-05-06 15:54 39.35383 0.93586 24873 ft 339 kts 87°
2026-05-06 15:54 39.35508 0.96626 24476 ft 336 kts 87°
2026-05-06 15:54 39.35629 0.99614 24075 ft 335 kts 87°
2026-05-06 15:54 39.35751 1.02609 23678 ft 333 kts 87°
2026-05-06 15:55 39.35875 1.05589 23283 ft 331 kts 87°